Temperature
24 23 23 22 21 21 22 23 23 23 22 22 22 21 21 20 20 18 18 18 19 19 19 19 19 19 19 19 18 18 18 18 18 18 18 18 18 18 18 18 18 18 18 18 18 18 18 18 18
24 23 23 22 21 21 22 23 23 23 22 22 22 21 21 20 19 18 18 19 19 19 19 19 19 19 19 19 19 18 18 18 18 18 18 18 18 18 18 18 18 18 18 18 18 18 18 18 18
24 23 23 21 22 22 23 24 24 24 23 23 22 21 20 20 19 19 19 19 19 19 19 19 19 19 19 19 19 18 18 18 18 18 18 18 18 18 18 18 18 18 18 18 18 18 18 18 18
24 23 23 22 23 24 24 24 24 24 23 22 21 21 20 20 19 19 19 19 19 19 19 19 19 19 19 19 19 18 18 18 18 18 18 18 18 18 18 18 18 18 18 18 18 18 18 18 18
24 24 22 22 24 25 25 25 25 23 23 22 21 20 20 20 20 20 19 20 20 19 19 19 19 19 19 19 19 18 18 18 18 18 18 18 18 18 18 18 18 18 18 18 18 18 18 18 18
25 23 22 22 24 25 25 25 24 23 22 21 21 20 20 20 20 20 20 20 20 19 19 19 19 19 19 19 19 18 18 18 18 18 18 18 18 18 18 18 18 18 18 18 18 18 18 18 18
24 22 23 24 24 25 25 25 24 23 22 22 21 20 20 20 20 20 20 20 20 19 19 19 19 19 19 19 19 19 19 18 18 18 18 18 18 18 18 18 18 18 18 18 18 18 18 18 18
26 23 24 24 24 25 26 25 24 23 23 22 22 20 20 20 20 20 20 20 20 19 19 19 19 19 19 19 19 19 19 19 18 18 18 18 18 18 18 18 18 18 18 18 18 18 18 18 18
27 23 23 24 25 25 26 25 24 24 23 22 22 21 21 21 20 20 20 20 19 19 19 19 19 19 19 19 19 19 19 18 18 18 18 18 18 18 18 18 18 18 18 18 18 18 18 18 18
27 23 25 26 25 25 26 25 25 24 23 22 22 21 21 21 21 20 20 20 20 19 19 19 19 19 19 19 19 19 18 18 18 18 18 18 18 18 18 18 18 18 18 18 18 18 18 18 18
27 26 27 27 27 27 26 25 25 23 22 22 21 21 21 21 21 21 20 20 20 20 19 19 19 19 19 19 19 19 18 18 18 18 18 18 18 18 18 18 18 18 18 18 18 18 18 18 18
28 28 28 28 28 27 26 26 25 24 23 23 22 22 21 21 21 21 20 20 20 20 20 19 19 19 19 19 19 19 19 18 18 18 18 18 18 18 18 18 18 18 18 18 18 18 18 18 18
28 28 29 29 28 27 27 26 25 24 23 23 22 22 22 21 21 21 21 20 20 20 20 19 19 19 19 19 19 19 19 19 18 18 18 18 18 18 18 18 18 18 18 18 18 18 18 18 18
28 28 28 28 28 27 26 25 25 24 23 23 22 22 22 22 21 21 21 21 20 20 20 20 19 19 19 19 19 19 19 18 18 18 18 18 18 18 18 18 18 18 18 18 18 18 18 18 18
29 27 27 27 27 27 26 24 24 24 23 23 23 22 22 22 22 21 21 21 21 20 20 20 20 19 19 19 19 19 19 19 18 18 18 18 18 18 18 18 18 18 18 18 18 18 18 18 18
27 26 26 27 27 27 25 23 24 24 24 23 23 22 22 22 22 22 21 21 21 21 20 20 20 20 19 19 19 19 19 19 19 19 18 18 18 18 18 18 18 18 18 18 18 18 18 18 18
25 25 25 27 27 27 25 23 24 24 24 23 23 23 22 22 22 22 22 21 21 21 20 20 20 20 19 19 19 19 19 19 19 18 18 18 18 18 18 18 18 18 18 18 18 18 18 18 18
24 25 26 26 27 27 25 24 24 25 24 24 24 23 23 22 22 22 22 22 21 21 21 20 20 20 19 19 19 19 19 19 19 19 18 18 18 18 18 18 18 18 18 18 18 18 18 18 18
26 26 26 27 28 27 25 25 24 25 24 24 24 23 23 23 23 23 22 22 21 21 21 20 20 20 20 19 19 19 19 19 19 19 18 18 18 18 18 18 18 18 18 18 18 18 18 18 18
27 26 26 27 28 27 25 25 25 25 24 24 24 24 23 23 23 22 22 22 22 21 21 21 20 20 20 20 19 19 19 19 19 19 19 18 18 18 18 18 18 18 18 18 18 18 18 17 17
27 26 27 27 28 27 25 24 24 25 25 25 25 24 24 24 23 23 22 22 22 22 21 21 21 20 20 20 19 19 19 19 19 19 19 19 18 18 18 18 18 18 18 18 18 18 18 18 17
27 28 28 28 26 24 25 23 23 24 24 24 25 24 24 24 24 23 23 22 22 22 22 21 21 21 20 20 19 19 19 19 19 19 19 19 19 19 18 18 18 18 18 18 18 18 18 17 17
27 28 28 27 25 24 24 23 23 23 23 24 24 25 24 24 24 23 23 23 23 22 22 22 21 21 20 20 20 19 19 19 19 19 19 19 19 19 18 18 18 18 18 18 18 18 17 17 17
28 27 26 24 22 23 24 23 23 22 24 24 24 25 24 24 24 24 23 23 23 22 22 22 21 21 21 20 20 20 20 19 19 19 19 19 19 19 18 18 18 18 18 18 18 18 17 17 17
27 24 23 23 22 22 23 23 23 24 25 25 25 25 25 24 24 24 23 23 23 22 22 22 22 21 21 21 20 20 20 20 19 19 19 19 19 19 19 18 18 18 18 18 18 18 18 17 17
25 24 22 23 22 22 23 24 24 25 26 26 26 25 25 25 24 24 24 23 23 23 23 22 22 22 21 21 21 21 20 20 20 20 19 19 19 19 19 18 18 18 18 18 18 18 18 17 17
26 24 23 22 22 22 22 23 24 25 25 25 25 25 25 25 24 24 24 24 23 23 23 23 22 22 22 22 21 21 21 20 20 20 19 19 19 19 19 18 18 18 18 18 18 18 17 17 17
26 24 22 21 22 22 23 23 23 24 24 24 24 24 25 25 25 24 24 24 24 24 23 23 23 23 22 22 22 21 21 21 20 20 20 20 19 19 19 19 19 18 18 18 18 18 17 17 17
26 25 22 20 21 21 22 22 24 24 24 24 24 25 25 25 25 25 25 24 24 24 23 23 23 23 22 22 22 21 21 21 20 20 20 20 19 19 19 19 18 18 18 18 18 18 18 17 17
26 25 22 22 21 20 21 22 25 24 24 24 25 25 26 25 25 25 25 24 24 24 24 23 23 23 22 22 22 21 21 21 21 20 20 19 19 19 19 19 18 18 18 18 18 18 18 17 17
Wind_Speed
11 8 4 1 3 5 6 6 7 8 7 9 11 10 9 8 5 7 4 7 7 5 6 10 12 13 14 15 15 16 16 16 16 17 17 18 17 17 18 19 18 18 18 18 18 18 18 17 17
7 5 2 2 5 5 5 7 11 12 11 10 11 12 9 8 7 8 5 8 8 7 7 10 12 13 14 15 15 15 15 15 16 16 16 17 17 17 17 18 18 18 17 17 17 16 16 15 15
5 3 2 3 4 5 6 9 13 14 11 9 6 7 6 5 6 5 8 10 7 7 8 11 12 13 14 15 14 15 15 15 15 15 16 16 16 16 16 16 16 16 16 16 15 15 14 14 13
2 2 3 5 7 5 8 10 14 15 10 9 9 7 4 5 5 8 12 11 9 6 9 12 13 13 13 14 14 14 14 14 14 15 15 15 15 15 15 15 15 15 14 14 13 12 12 12 11
2 3 5 5 7 7 8 12 13 12 6 9 11 8 4 4 10 12 11 11 10 7 8 12 14 13 14 14 13 13 13 13 13 14 14 14 14 14 14 14 13 13 12 12 11 11 10 10 10
2 3 5 5 7 7 8 12 15 15 14 11 10 8 3 5 10 11 11 10 10 9 9 11 13 13 14 14 13 13 12 12 12 13 13 13 13 13 13 12 12 11 11 10 9 8 8 8 8
3 4 4 6 6 6 8 9 12 13 12 7 8 6 4 5 8 10 11 10 9 10 8 8 10 11 12 12 12 12 12 11 11 11 11 11 11 11 11 10 10 10 9 8 8 7 6 6 6
4 4 4 4 7 6 8 8 11 13 10 10 7 7 6 7 9 11 10 9 9 8 7 7 8 8 8 10 11 11 10 10 10 10 9 10 9 9 9 8 8 8 8 7 6 6 4 4 4
3 4 4 5 7 7 10 11 7 8 11 6 4 7 9 10 11 12 9 8 7 8 6 6 7 7 7 8 9 9 9 9 8 7 8 7 6 7 7 7 7 7 6 6 6 5 4 3 3
5 5 6 6 8 9 11 12 9 8 11 9 10 10 11 11 11 11 10 9 8 8 6 5 6 6 7 7 7 6 6 6 5 5 6 6 6 6 6 6 5 5 5 4 4 3 3 3 2
6 6 6 6 9 11 10 9 7 11 9 13 15 14 12 11 10 10 10 9 8 8 7 6 6 6 6 4 6 4 4 5 4 5 5 5 5 4 4 3 2 2 2 2 1 2 2 2 3
6 6 7 8 9 11 10 8 8 9 11 15 16 15 12 11 11 10 10 8 8 8 7 6 6 5 5 5 5 4 4 4 4 5 5 5 3 2 2 1 2 2 2 1 1 1 2 2 3
7 5 7 9 10 10 12 11 10 10 14 15 15 14 13 12 10 9 10 9 9 8 7 6 6 5 4 4 3 4 3 3 4 5 5 5 3 2 2 1 1 2 2 2 1 1 1 1 2
4 7 8 10 11 10 15 11 8 12 15 15 15 13 12 12 11 9 9 9 8 8 8 6 6 5 5 4 3 3 3 4 4 4 4 5 4 3 2 1 1 1 2 3 2 2 1 1 2
6 7 4 5 8 9 13 8 8 14 14 14 13 13 12 11 11 11 11 10 9 9 8 7 7 5 5 5 4 4 4 4 3 3 4 4 5 4 3 1 1 1 1 1 1 1 1 1 2
5 5 3 4 6 8 10 7 9 13 14 13 13 13 12 10 11 11 10 9 9 9 8 7 7 6 5 4 4 4 4 4 3 3 4 4 5 5 3 2 1 1 1 1 1 1 1 1 1
3 1 3 4 5 7 7 7 11 12 14 13 13 13 12 11 10 10 11 11 10 10 9 7 6 6 5 4 3 3 4 3 3 3 3 3 4 5 4 2 1 2 1 1 1 1 1 1 0
4 3 3 5 5 7 7 8 12 13 13 13 13 13 13 13 12 12 11 11 10 9 8 7 6 6 5 4 3 2 2 1 2 3 3 3 3 4 4 2 1 2 2 1 1 1 1 1 0
6 5 5 6 7 6 8 10 14 13 11 11 12 13 13 13 12 12 12 12 10 8 8 7 7 6 5 3 3 2 2 1 1 2 3 3 3 4 3 1 1 1 2 1 1 1 1 1 1
3 4 4 3 5 6 7 8 12 13 15 15 15 15 15 13 11 12 11 11 11 10 9 8 8 6 6 4 4 3 3 2 2 1 2 3 4 4 4 2 1 1 2 1 1 1 1 0 1
4 6 6 5 2 4 6 1 6 9 8 10 12 13 14 17 16 14 13 12 12 11 11 10 8 7 6 5 3 2 2 1 1 1 1 2 4 4 4 3 2 2 2 2 1 1 2 1 1
5 5 6 5 4 2 5 3 6 8 7 10 12 12 13 15 15 14 14 13 13 12 11 10 9 8 7 6 5 5 4 3 3 3 2 2 3 4 4 3 3 2 2 1 1 1 1 2 0
4 2 4 4 4 2 1 3 5 4 7 11 12 13 14 14 16 16 16 15 14 13 12 10 9 8 7 6 6 6 4 3 2 2 2 2 2 3 3 3 3 2 1 1 1 0 1 2 2
3 3 5 5 4 0 4 3 4 6 11 12 11 12 13 13 14 14 13 12 11 11 11 10 10 8 8 7 7 6 6 4 4 3 3 2 2 2 2 3 2 2 2 2 2 1 2 2 2
3 5 3 4 4 4 3 2 6 8 10 13 14 12 12 13 13 13 13 12 12 12 11 11 10 9 8 8 7 7 6 6 6 5 4 3 2 2 3 3 2 2 2 2 2 1 2 2 2
2 8 8 5 4 4 2 3 6 6 8 9 9 11 12 13 13 14 16 15 15 15 13 12 11 10 9 9 8 6 6 5 4 4 4 4 4 4 4 3 3 3 3 2 2 1 2 1 1
3 3 8 7 2 0 3 3 5 1 3 6 7 8 12 14 14 15 15 15 14 15 14 13 13 10 9 9 7 6 6 5 5 4 4 3 3 3 4 3 3 3 3 2 2 1 2 1 1
7 7 6 6 5 2 4 3 4 4 4 6 8 9 10 10 11 12 14 14 14 13 13 12 12 12 10 9 8 7 6 6 6 5 4 4 4 3 3 3 3 3 3 3 2 2 2 1 2
2 3 5 5 6 6 3 6 7 9 9 9 9 10 11 11 11 11 12 13 13 12 12 12 12 11 10 10 8 7 7 7 6 5 5 4 4 4 4 4 3 3 3 3 2 2 2 2 2
6 6 7 6 4 5 5 7 6 8 9 9 9 10 11 12 11 11 11 11 12 12 11 11 11 11 11 10 9 8 7 6 6 6 5 5 4 4 5 4 4 4 3 3 3 3 3 3 2
Wind_Direction
175 173 163 138 55 60 78 93 102 86 66 64 74 80 79 66 91 123 162 132 128 123 118 109 103 99 97 96 96 95 94 92 95 99 99 99 100 103 105 107 109 110 110 111 112 114 115 116 119
169 174 160 66 83 84 82 99 95 99 118 103 79 78 72 68 84 115 133 139 131 129 127 117 110 105 104 102 100 99 97 96 99 103 103 102 102 104 107 109 109 110 111 111 113 114 115 117 120
178 178 103 70 89 113 109 106 106 107 106 94 83 64 66 99 111 129 147 144 132 128 131 124 115 110 111 109 106 104 102 100 101 103 105 106 105 106 108 109 110 110 112 114 115 116 117 119 120
146 86 50 75 91 104 118 121 114 104 82 75 90 74 65 100 121 136 142 142 135 133 135 129 120 114 113 113 110 107 105 104 104 104 106 109 110 112 112 110 110 112 114 116 117 118 119 118 119
87 74 64 76 95 106 112 116 111 103 90 88 93 96 79 85 119 131 140 139 136 136 132 129 123 119 117 117 112 110 109 109 108 109 111 112 112 112 113 115 115 116 116 117 119 121 121 119 119
59 73 85 98 103 107 111 110 106 103 111 106 102 103 104 127 127 136 139 137 136 136 133 134 126 123 123 121 116 114 113 112 113 112 114 116 118 120 120 122 124 123 121 120 123 126 127 126 125
123 102 125 126 115 110 117 118 117 126 125 125 125 106 128 138 137 138 136 133 131 133 135 132 133 131 126 124 120 117 116 114 116 117 118 119 121 123 125 128 131 132 131 134 137 140 141 140 136
161 113 108 109 120 121 124 111 122 127 122 132 128 128 156 163 140 132 128 129 130 131 136 139 136 136 137 132 128 128 125 122 122 122 122 123 127 130 132 133 138 140 141 146 153 156 159 153 149
133 97 131 146 137 133 119 108 107 104 114 122 110 131 150 144 130 124 123 122 131 136 139 142 142 144 151 146 140 137 135 133 130 127 127 122 125 129 136 139 148 151 152 159 164 170 177 175 178
130 130 170 163 146 136 126 126 127 110 110 107 106 119 133 131 129 130 134 138 140 146 151 147 145 151 157 151 145 148 145 139 137 136 128 133 138 142 142 144 152 158 160 164 172 184 197 196 198
136 144 146 133 133 128 127 127 114 120 127 141 141 145 145 139 136 139 141 144 145 149 146 150 147 152 156 146 148 155 152 145 140 137 134 132 132 135 138 142 151 155 158 167 187 184 199 194 194
123 139 141 141 129 124 127 125 113 126 150 152 147 148 147 146 148 149 145 144 143 141 141 146 145 142 142 140 147 158 161 156 152 153 149 136 127 125 135 147 164 168 168 167 184 197 221 215 206
110 126 132 132 123 122 116 118 116 126 139 142 142 145 148 148 150 153 150 147 141 140 139 144 139 133 134 121 135 143 152 158 151 149 146 138 133 138 149 153 162 186 182 177 192 191 188 172 154
139 122 126 129 123 125 120 118 111 139 143 145 148 150 152 152 151 146 146 147 147 145 148 145 140 137 127 122 127 137 152 155 146 152 153 143 143 140 132 123 126 187 200 194 180 162 147 142 137
99 104 100 135 127 130 114 103 137 153 150 153 156 158 157 157 153 156 160 157 154 150 151 150 147 138 131 132 141 145 151 143 144 159 157 140 139 141 136 124 122 185 188 165 128 95 90 121 126
62 89 138 218 147 145 117 147 168 162 158 163 167 166 164 166 163 166 165 159 155 149 153 158 151 146 147 144 139 144 147 142 149 151 147 143 144 138 128 117 128 173 128 104 98 71 75 76 119
34 134 195 220 189 150 126 166 180 176 166 169 173 171 169 169 171 173 170 163 159 156 155 156 150 150 153 146 139 141 146 148 158 154 157 158 145 135 130 126 144 144 102 60 92 75 101 96 91
212 192 204 202 203 156 150 172 175 181 177 175 176 175 173 175 180 179 172 165 162 160 155 155 153 154 151 135 119 105 112 143 156 162 178 164 151 144 135 125 128 119 91 53 60 80 67 108 147
181 191 214 217 189 160 169 167 179 182 182 179 180 182 180 182 182 176 172 168 161 160 157 158 159 162 151 140 144 144 159 175 168 177 186 172 161 153 143 140 110 118 122 140 111 91 69 40 77
192 195 217 226 188 151 166 182 185 183 188 188 186 186 181 179 178 176 173 169 167 168 166 165 170 169 165 162 162 165 166 180 184 189 181 178 163 160 164 163 156 143 129 93 90 91 95 48 102
244 195 197 184 133 104 122 168 204 202 197 195 194 188 182 181 182 180 176 175 172 173 174 175 176 173 174 166 146 138 98 63 73 201 212 203 179 172 173 178 159 146 154 171 196 153 133 165 284
253 220 179 157 125 184 139 180 246 208 197 202 200 191 188 186 182 181 178 177 178 179 176 173 174 173 176 167 158 161 167 182 206 202 205 209 191 184 182 173 160 158 161 178 223 180 155 146 231
221 163 132 143 136 96 61 126 275 179 199 213 204 195 190 189 185 184 182 181 180 179 176 175 172 173 173 168 171 171 176 189 191 182 184 194 203 196 187 181 163 161 171 187 212 202 172 171 180
166 60 47 60 83 131 240 159 258 204 205 205 201 196 189 187 187 186 184 177 176 177 177 176 173 178 176 173 173 175 181 182 174 187 192 201 214 225 212 190 184 183 185 204 211 210 200 209 202
81 99 38 6 15 249 255 163 236 223 201 194 192 192 187 186 181 183 181 177 177 179 181 180 178 181 182 180 183 184 183 181 186 194 193 190 201 215 225 206 202 202 204 202 194 203 222 217 215
200 143 158 185 214 264 335 218 250 225 191 181 178 178 178 183 183 186 186 184 185 184 185 183 184 185 184 186 192 190 183 183 192 195 190 194 201 208 211 207 208 209 204 198 188 202 233 219 223
167 170 164 140 151 31 287 280 311 228 154 161 158 168 179 181 185 189 188 186 187 187 186 185 184 186 187 188 187 189 186 181 192 196 191 194 197 202 204 204 204 203 198 193 192 202 237 218 228
164 156 107 122 148 229 291 267 226 217 195 178 166 175 182 182 181 186 188 187 188 188 187 184 185 187 187 187 188 189 189 188 193 189 196 197 198 199 188 206 207 207 208 200 196 210 229 216 242
150 134 129 130 152 158 212 263 221 194 191 182 183 183 178 179 185 186 186 188 186 184 183 184 187 187 188 190 189 186 187 193 193 198 205 202 200 197 197 205 206 208 211 206 194 213 219 221 252
164 165 149 155 196 164 166 254 244 191 186 179 183 182 178 180 184 185 183 182 182 182 182 185 187 189 191 189 185 187 187 188 193 203 205 199 198 199 202 201 199 206 209 204 193 211 223 218 232
Height
1501 1501 1502 1503 1506 1515 1517 1511 1506 1506 1508 1509 1508 1509 1512 1515 1520 1528 1526 1523 1523 1522 1521 1521 1520 1518 1518 1517 1517 1516 1516 1515 1515 1516 1516 1516 1517 1517 1518 1519 1521 1523 1524 1526 1527 1529 1531 1532 1534
1501 1502 1503 1504 1513 1526 1521 1510 1508 1508 1510 1510 1510 1512 1514 1518 1520 1522 1523 1524 1524 1523 1522 1522 1521 1520 1520 1519 1519 1519 1519 1518 1518 1519 1519 1520 1520 1521 1522 1523 1524 1526 1527 1529 1530 1531 1533 1535 1536
1502 1502 1504 1506 1515 1522 1519 1510 1508 1510 1510 1509 1513 1515 1517 1521 1522 1523 1523 1524 1524 1523 1524 1523 1523 1522 1522 1522 1522 1522 1522 1522 1522 1522 1523 1523 1524 1525 1525 1526 1527 1529 1530 1531 1533 1534 1535 1537 1538
1502 1503 1505 1510 1515 1510 1508 1508 1508 1510 1512 1513 1514 1518 1521 1523 1523 1523 1524 1524 1524 1524 1525 1525 1525 1524 1524 1524 1524 1524 1525 1525 1525 1525 1525 1526 1527 1528 1528 1529 1530 1531 1533 1534 1535 1536 1538 1539 1540
1503 1504 1510 1517 1513 1507 1505 1506 1507 1509 1513 1516 1515 1520 1523 1525 1524 1524 1525 1525 1525 1525 1526 1526 1527 1527 1526 1527 1527 1527 1528 1528 1528 1528 1528 1529 1530 1531 1531 1532 1533 1534 1535 1536 1538 1539 1540 1541 1542
1504 1506 1519 1524 1514 1507 1507 1508 1509 1512 1516 1518 1519 1522 1525 1526 1525 1526 1526 1527 1527 1527 1528 1528 1529 1529 1529 1530 1530 1530 1530 1531 1531 1531 1532 1532 1533 1533 1534 1535 1536 1537 1538 1539 1540 1541 1542 1543 1544
1505 1509 1516 1516 1514 1511 1509 1508 1510 1513 1516 1518 1519 1522 1526 1527 1527 1527 1528 1528 1529 1530 1530 1531 1532 1532 1532 1532 1533 1532 1533 1533 1534 1534 1535 1535 1535 1536 1537 1537 1538 1539 1540 1540 1541 1542 1543 1544 1545
1503 1507 1514 1515 1514 1513 1508 1509 1511 1513 1517 1519 1519 1521 1525 1527 1528 1529 1530 1531 1531 1532 1533 1534 1534 1534 1534 1535 1535 1535 1536 1536 1536 1537 1537 1538 1538 1538 1539 1539 1540 1541 1541 1542 1543 1544 1545 1545 1545
1502 1510 1518 1513 1512 1511 1508 1510 1514 1515 1516 1519 1520 1521 1524 1527 1529 1530 1531 1532 1534 1534 1535 1536 1536 1537 1537 1537 1538 1538 1538 1539 1539 1539 1539 1539 1540 1540 1540 1541 1541 1542 1543 1543 1544 1544 1545 1546 1546
1499 1511 1509 1502 1503 1506 1508 1510 1513 1517 1519 1521 1522 1524 1526 1528 1530 1531 1532 1533 1535 1536 1537 1537 1538 1539 1539 1539 1540 1540 1541 1541 1541 1541 1541 1541 1542 1542 1542 1543 1543 1543 1544 1544 1545 1545 1546 1546 1546
1496 1502 1500 1500 1502 1504 1508 1510 1512 1516 1520 1520 1522 1525 1527 1529 1531 1532 1534 1535 1536 1537 1538 1539 1540 1540 1541 1541 1542 1542 1542 1543 1543 1543 1543 1543 1543 1543 1543 1544 1544 1544 1545 1545 1546 1546 1546 1546 1547
1495 1496 1497 1501 1502 1504 1508 1511 1514 1515 1519 1521 1522 1524 1528 1530 1532 1533 1534 1536 1537 1538 1539 1540 1541 1542 1542 1543 1543 1544 1544 1544 1545 1545 1545 1544 1544 1544 1544 1545 1545 1545 1545 1545 1545 1546 1546 1546 1547
1496 1497 1499 1501 1503 1505 1508 1511 1514 1518 1520 1522 1524 1527 1529 1531 1532 1534 1535 1537 1538 1539 1540 1541 1542 1543 1543 1544 1544 1545 1545 1545 1546 1546 1546 1546 1546 1545 1545 1545 1545 1546 1546 1546 1546 1546 1546 1546 1547
1497 1498 1500 1502 1504 1507 1510 1514 1516 1520 1521 1524 1525 1528 1530 1531 1533 1534 1536 1537 1538 1539 1540 1542 1542 1543 1544 1545 1545 1545 1546 1546 1546 1547 1546 1546 1546 1546 1546 1546 1546 1546 1546 1546 1546 1546 1546 1546 1546
1498 1502 1505 1505 1505 1509 1512 1519 1518 1520 1522 1525 1526 1528 1530 1532 1533 1534 1536 1537 1538 1539 1541 1542 1543 1544 1545 1545 1546 1546 1547 1547 1547 1547 1547 1547 1547 1546 1546 1546 1546 1546 1546 1546 1546 1546 1546 1546 1546
1500 1509 1516 1508 1505 1509 1515 1528 1520 1520 1521 1524 1526 1528 1530 1532 1533 1534 1536 1537 1538 1540 1541 1542 1543 1544 1545 1545 1546 1547 1547 1547 1548 1548 1548 1547 1547 1547 1547 1547 1546 1546 1546 1546 1546 1545 1545 1545 1545
1511 1520 1518 1511 1505 1507 1513 1522 1518 1519 1520 1522 1525 1527 1529 1531 1533 1534 1535 1537 1538 1539 1541 1542 1543 1544 1545 1546 1546 1547 1547 1548 1548 1548 1548 1548 1547 1547 1547 1547 1546 1546 1546 1546 1545 1545 1545 1545 1545
1520 1519 1516 1514 1505 1505 1511 1515 1515 1517 1519 1520 1523 1525 1527 1529 1531 1533 1535 1536 1538 1540 1541 1542 1543 1544 1545 1546 1546 1547 1547 1548 1548 1548 1548 1548 1548 1547 1547 1547 1547 1546 1546 1545 1545 1545 1544 1544 1544
1505 1510 1513 1507 1499 1504 1510 1513 1513 1515 1518 1520 1521 1523 1524 1527 1529 1532 1534 1535 1537 1539 1540 1541 1542 1543 1544 1545 1545 1546 1547 1547 1547 1548 1548 1548 1548 1548 1547 1547 1546 1546 1546 1545 1545 1544 1544 1543 1543
1502 1509 1510 1505 1498 1503 1511 1512 1511 1512 1513 1515 1517 1519 1521 1525 1528 1530 1532 1534 1535 1537 1539 1540 1541 1542 1543 1544 1545 1546 1546 1547 1547 1547 1548 1547 1547 1547 1547 1547 1546 1546 1545 1545 1544 1544 1543 1543 1542
1500 1506 1506 1506 1501 1504 1512 1520 1516 1513 1513 1515 1516 1517 1519 1522 1524 1527 1529 1531 1533 1535 1537 1538 1540 1541 1542 1543 1544 1545 1546 1546 1546 1546 1547 1547 1547 1547 1547 1546 1546 1545 1545 1544 1543 1543 1543 1542 1542
1503 1492 1495 1500 1512 1522 1517 1537 1521 1513 1513 1513 1514 1516 1517 1519 1522 1524 1526 1529 1531 1533 1535 1536 1538 1540 1541 1542 1543 1543 1544 1544 1545 1545 1546 1546 1546 1546 1546 1546 1545 1545 1544 1544 1543 1542 1542 1541 1541
1493 1487 1492 1499 1511 1521 1520 1532 1527 1514 1517 1512 1511 1512 1514 1516 1518 1521 1523 1525 1528 1531 1533 1535 1536 1538 1540 1541 1542 1542 1543 1543 1544 1545 1545 1545 1545 1545 1545 1545 1545 1544 1544 1543 1542 1542 1541 1540 1540
1485 1492 1498 1506 1519 1535 1524 1530 1530 1516 1509 1506 1507 1509 1510 1513 1516 1519 1522 1524 1527 1530 1532 1533 1535 1536 1538 1539 1540 1541 1541 1542 1543 1543 1543 1544 1544 1544 1544 1544 1544 1543 1543 1542 1541 1541 1540 1539 1539
1488 1509 1531 1536 1544 1539 1520 1525 1523 1502 1498 1499 1502 1505 1507 1509 1513 1517 1520 1522 1525 1527 1529 1531 1533 1534 1536 1537 1538 1539 1540 1541 1542 1542 1542 1542 1543 1543 1543 1543 1543 1542 1542 1541 1540 1540 1539 1538 1537
1491 1504 1531 1546 1547 1537 1522 1524 1510 1494 1493 1495 1497 1501 1504 1508 1510 1513 1516 1519 1521 1524 1526 1528 1530 1531 1533 1535 1536 1538 1539 1540 1540 1541 1541 1541 1541 1541 1542 1542 1541 1541 1541 1540 1539 1538 1538 1537 1536
1491 1500 1502 1523 1530 1538 1531 1518 1504 1493 1493 1495 1497 1500 1502 1503 1506 1509 1513 1516 1518 1521 1523 1525 1527 1529 1531 1533 1534 1536 1537 1538 1539 1539 1540 1539 1540 1540 1540 1540 1540 1539 1539 1539 1538 1537 1536 1536 1535
1479 1488 1506 1523 1539 1545 1533 1523 1517 1501 1498 1496 1496 1498 1499 1501 1503 1506 1510 1513 1515 1518 1520 1523 1524 1526 1528 1530 1532 1533 1535 1536 1537 1538 1538 1538 1538 1538 1538 1538 1538 1538 1537 1537 1536 1536 1535 1534 1533
1483 1490 1501 1517 1523 1539 1543 1529 1496 1494 1492 1493 1493 1495 1496 1499 1501 1504 1506 1510 1513 1515 1518 1520 1522 1524 1526 1528 1530 1531 1533 1534 1535 1535 1536 1536 1536 1536 1536 1536 1536 1536 1536 1535 1535 1534 1533 1532 1531
1474 1483 1496 1514 1522 1525 1531 1522 1485 1486 1487 1488 1489 1491 1494 1496 1498 1501 1504 1507 1510 1513 1515 1518 1520 1522 1524 1526 1528 1529 1530 1531 1532 1533 1533 1534 1534 1535 1535 1534 1534 1534 1533 1533 1533 1532 1531 1531 1530